Location: St. Louis
(38.6270°N, 90.1994°W)
Time: 11:34:39
(UTC-06:00)

A-11 Canister half - Pass Details

Date: 07 December 2021
Orbit: 1524 x 1684 km, 47.3° (Epoch: 25 January)

Event Time Altitude Azimuth Distance (km) Brightness Sun altitude
Rises 08:14:04 0° 297° (WNW) 4,891 11.0 10.2°
Reaches altitude 10° 08:17:38 10° 289° (WNW) 3,880 10.6 10.7°
Maximum altitude 08:26:01 33° 230° (SW) 2,460 10.2 12.0°
Drops below altitude 10° 08:34:10 10° 171° (S) 3,757 12.0 13.1°
Sets 08:37:36 0° 162° (SSE) 4,717 12.7 13.6°
